CW1740 Weather Reports


time (UTC)temp
C
wind
direction
speed
KPH
gust
KPH
rain 1hr
cm
rain 24hr
cm
rain mn
cm
humidity
%
barometer
mb
20260906123037 21 360 3.2 6.4 0.00 0.00 0.00 95 1016.9
20260906121525 21 360 3.2 8.0 0.00 0.00 0.00 95 1016.6
20260906120021 21 360 3.2 6.4 0.00 0.00 0.00 96 1016.2
20260906114520 21 360 3.2 8.0 0.00 0.00 0.00 95 1015.9
20260906113016 21 360 3.2 12.9 0.00 0.00 0.00 96 1015.6
20260906111515 21 360 1.6 4.8 0.00 0.00 0.00 96 1015.6
20260906110014 21 360 0.0 3.2 0.00 0.00 0.00 95 1015.5
20260906104531 21 360 1.6 4.8 0.00 0.00 0.00 95 1015.3
20260906103035 21 360 1.6 4.8 0.00 0.00 0.00 95 1015.1
20260906101512 21 360 1.6 4.8 0.00 0.00 0.00 95 1015.0
20260906100024 21 360 0.0 8.0 0.00 0.00 0.00 95 1014.9
20260906094512 21 360 0.0 8.0 0.00 0.00 0.00 95 1014.9
20260906093016 21 360 3.2 8.0 0.00 0.00 0.00 95 1014.8
20260906091520 21 360 0.0 0.0 0.00 0.00 0.00 95 1014.9
20260906090010 21 360 0.0 0.0 0.00 0.00 0.00 95 1015.0
20260906084508 21 360 0.0 0.0 0.00 0.00 0.00 95 1015.0
20260906083007 21 360 0.0 0.0 0.00 0.00 0.00 95 1015.0
20260906081506 21 360 0.0 1.6 0.00 0.00 0.00 95 1015.0
20260906080006 21 360 0.0 4.8 0.00 0.00 0.00 95 1014.9
20260906074505 21 360 0.0 3.2 0.00 0.00 0.00 95 1015.1
20260906073004 21 360 0.0 0.0 0.00 0.00 0.00 95 1015.2
20260906071503 20 360 0.0 4.8 0.00 0.00 0.00 95 1015.2
20260906070007 20 360 0.0 3.2 0.00 0.00 0.00 95 1015.0
20260906064502 20 360 0.0 0.0 0.00 0.00 0.00 95 1015.2
20260906063001 20 360 0.0 0.0 0.00 0.00 0.00 95 1015.3
20260906061601 21 360 0.0 0.0 0.00 0.00 0.00 94 1015.5
20260906060100 21 360 0.0 0.0 0.00 0.00 0.00 94 1015.5
20260906054623 21 360 0.0 0.0 0.00 0.00 0.00 94 1015.5
20260906053056 21 360 0.0 0.0 0.00 0.00 0.00 94 1015.4
20260906051555 21 360 0.0 0.0 0.00 0.00 0.00 94 1015.3
20260906044550 21 360 0.0 4.8 0.00 0.00 0.00 94 1014.8
20260906043047 21 360 1.6 6.4 0.00 0.00 0.00 94 1014.5
20260906041545 21 360 0.0 0.0 0.00 0.00 0.00 94 1014.4
20260906040047 21 360 0.0 1.6 0.00 0.00 0.00 93 1014.2
20260906034548 22 360 0.0 3.2 0.00 0.00 0.00 93 1014.1
20260906033039 22 360 0.0 8.0 0.00 0.00 0.00 93 1014.0
20260906031602 22 360 0.0 1.6 0.00 0.00 0.00 93 1013.8
20260906030038 22 360 0.0 0.0 0.00 0.00 0.00 92 1013.8
20260906024553 22 360 0.0 0.0 0.00 0.00 0.00 92 1013.9
20260906023034 22 360 0.0 0.0 0.00 0.00 0.00 91 1013.6
20260906021530 23 360 0.0 0.0 0.00 0.00 0.00 91 1013.5
20260906020028 23 360 0.0 1.6 0.00 0.00 0.00 90 1013.4
20260906014527 23 360 0.0 0.0 0.00 0.00 0.00 89 1013.3
20260906013024 24 360 0.0 6.4 0.00 0.00 0.00 88 1012.9
20260906011524 25 360 0.0 12.9 0.00 0.00 0.00 87 1012.9
20260906010041 25 360 1.6 14.5 0.00 0.00 0.00 86 1012.9
20260906004523 25 360 0.0 9.7 0.00 0.00 0.00 85 1012.7
20260906003022 26 360 0.0 9.7 0.00 0.00 0.00 83 1012.5
20260906001530 27 360 0.0 1.6 0.00 0.00 0.00 82 1012.4
20260906000023 27 360 0.0 6.4 0.00 0.00 0.00 80 1012.5
20260905234521 28 360 0.0 6.4 0.00 0.00 0.00 78 1012.3
20260905233021 28 360 0.0 9.7 0.00 0.00 0.00 77 1012.0
20260905231520 29 360 0.0 1.6 0.00 0.00 0.00 77 1011.8
20260905230031 30 360 0.0 8.0 0.00 0.00 0.00 76 1011.8
20260905224520 30 360 0.0 8.0 0.00 0.00 0.00 76 1011.8
20260905223018 30 360 0.0 9.7 0.00 0.00 0.00 76 1011.8
20260905221517 31 360 0.0 8.0 0.00 0.00 0.00 73 1011.8
20260905220022 32 360 0.0 6.4 0.00 0.00 0.00 72 1011.6
20260905214517 32 360 0.0 1.6 0.00 0.00 0.00 70 1011.5
20260905213016 32 360 0.0 3.2 0.00 0.00 0.00 68 1011.5
20260905211539 32 360 0.0 14.5 0.00 0.00 0.00 69 1011.4
20260905210017 32 360 0.0 4.8 0.00 0.00 0.00 70 1011.4
20260905204515 32 360 0.0 3.2 0.00 0.00 0.00 70 1011.5
20260905203015 32 360 0.0 3.2 0.00 0.00 0.00 72 1011.8
20260905201515 32 360 0.0 3.2 0.00 0.00 0.00 69 1011.8
20260905200014 32 360 0.0 1.6 0.00 0.00 0.00 73 1011.8
20260905194514 32 360 0.0 1.6 0.00 0.00 0.00 71 1011.8
20260905193012 32 360 0.0 1.6 0.00 0.00 0.00 68 1011.9
20260905191511 32 360 0.0 3.2 0.00 0.00 0.00 68 1012.0
20260905190013 32 360 0.0 1.6 0.00 0.00 0.00 70 1012.1
20260905184509 32 360 0.0 4.8 0.00 0.00 0.00 72 1012.2
20260905183008 32 360 0.0 3.2 0.00 0.00 0.00 70 1012.3
20260905181507 32 360 0.0 1.6 0.00 0.00 0.00 71 1012.4
20260905180004 32 360 0.0 0.0 0.00 0.00 0.00 71 1012.4
20260905174503 32 360 0.0 4.8 0.00 0.00 0.00 72 1012.5
20260905173105 32 360 0.0 1.6 0.00 0.00 0.00 71 1012.6
20260905171559 32 360 0.0 1.6 0.00 0.00 0.00 73 1012.6
20260905170059 31 360 0.0 1.6 0.00 0.00 0.00 72 1012.8
20260905164555 31 360 0.0 3.2 0.00 0.00 0.00 74 1012.9
20260905163052 31 360 0.0 3.2 0.00 0.00 0.00 75 1012.8
20260905161550 31 360 0.0 3.2 0.00 0.00 0.00 75 1012.9
20260905160047 31 360 0.0 0.0 0.00 0.00 0.00 77 1012.9
20260905154545 31 360 0.0 1.6 0.00 0.00 0.00 77 1012.8
20260905153042 30 360 0.0 1.6 0.00 0.00 0.00 75 1012.6
20260905151546 30 360 0.0 0.0 0.00 0.00 0.00 75 1012.7
20260905150036 30 360 0.0 1.6 0.00 0.00 0.00 77 1012.6
20260905144532 29 360 0.0 1.6 0.00 0.00 0.00 76 1012.5
20260905143032 29 360 0.0 1.6 0.00 0.00 0.00 77 1012.4
20260905141528 28 360 0.0 1.6 0.00 0.00 0.00 80 1012.2
20260905140021 28 360 0.0 0.0 0.00 0.00 0.00 81 1012.3
20260905134517 27 360 0.0 0.0 0.00 0.00 0.00 85 1012.3
20260905133013 27 360 0.0 1.6 0.00 0.00 0.00 87 1012.3
20260905131509 26 360 0.0 0.0 0.00 0.00 0.00 90 1012.3
20260905130004 25 360 0.0 0.0 0.00 0.00 0.00 92 1012.2
20260905124502 24 360 0.0 0.0 0.00 0.00 0.00 94 1012.0